Regional Weather Roundup
Issued by NWS Sterling, VA

Home | Current Version | Previous Version | Text Only | Print | Product List | Glossary On
Versions: 1 2 3 4 5 6 7 8 9 10 11 12 13 14 15 16 17 18 19 20 21 22 23 24 25 26 27 28 29 30 31 32 33 34 35 36 37 38 39 40 41 42 43 44 45 46 47
000
ASUS41 KLWX 271210
RWRLWX

REGIONAL WEATHER ROUNDUP
NATIONAL WEATHER SERVICE BALTIMORE MD/WASHINGTON DC
700 AM EST FRI FEB 27 2015

Note: "FAIR" indicates few or no clouds below 12,000 feet
with no significant weather and/or obstructions to visibility.
 TC=TEMPERATURE CELSIUS

 * =Non NWS site. Station does not report precipitation (e.g. rain,
    snow, etc.), thunder, or fog.

DCZ001-MDZ009-015-VAZ040>042-051-053>054-271300-
WASHINGTON METRO

CITY           SKY/WX    TMP DP  RH WIND       PRES   REMARKS
WASHINGTON NAT CLOUDY    33  22  63 N13       30.31R WCI  24
DULLES         CLOUDY    27  17  66 N9        30.31R WCI  18
ANDREWS AFB    CLOUDY    29  24  81 N6        30.29R
FT BELVOIR     CLOUDY    32  21  64 VRB7      30.32R
QUANTICO       CLOUDY    32  23  69 NE12      30.33R WCI  23
COLLEGE PARK*  CLOUDY    32  23  69 NW8       30.30R WCI  25
LEESBURG*      CLOUDY    28  19  69 NW13      30.33R WCI  18
MANASSAS*      CLOUDY    30  25  80 N12G17    30.32R WCI  21
GAITHERSBURG*  CLEAR     25  16  68 NW6       30.33R

$$

MDZ006>007-011-014-271300-
BALTIMORE METRO

CITY           SKY/WX    TMP DP  RH WIND       PRES   REMARKS
BWI AIRPORT    MOCLDY    27  22  81 NW6       30.29R HAZE
MD SCIENCE CTR   N/A     29  21  72 MISG      30.28R
MARTIN STATE   FLURRIES  28  25  86 N3        30.32R
ANNAPOLIS      CLOUDY    29  23  78 NW3       30.30R
FORT MEADE*    CLOUDY    27  23  86 CALM      30.32R

$$

MDZ012-015-019>023-271300-
MARYLAND EASTERN SHORE

CITY           SKY/WX    TMP DP  RH WIND       PRES   REMARKS
OCEAN CITY     MOCLDY    17  15  92 NW5       30.28R FOG
SALISBURY      CLOUDY    24  19  81 N3        30.28R HAZE
BAY BRIDGE AP*   N/A     30  25  80 CALM      30.30R
CAMBRIDGE*     MOCLDY    28  25  86 CALM      30.28R
EASTON*        CLOUDY    28  27  93 CALM      30.33R

$$

MDZ017>025-271300-
SOUTHERN MARYLAND

CITY           SKY/WX    TMP DP  RH WIND       PRES   REMARKS
PATUXENT RIVER CLOUDY    28  24  85 CALM      30.29R
ST INIGOES     CLOUDY    28  23  81 CALM      30.29R
LEONARDTOWN*   CLOUDY    28  25  86 CALM      30.29S

$$

MDZ003>005-271300-
NORTH CENTRAL MARYLAND

CITY           SKY/WX    TMP DP  RH WIND       PRES   REMARKS
FREDERICK*     MOCLDY    27   9  46 NW9       30.35R WCI  17
HAGERSTOWN APT PTCLDY    20   8  60 NW12      30.31R WCI   8
WESTMINSTER*   FLURRIES  21  18  86 N10       30.27R WCI  10

$$

MDZ501>502-271300-
WESTERN MARYLAND

CITY           SKY/WX    TMP DP  RH WIND       PRES   REMARKS
OAKLAND*       CLOUDY     3   3 100 NW6       30.16R FOG
CUMBERLAND*    CLEAR     18   3  53 NW10G16   30.39R WCI   6

$$

VAZ025>031-271300-
SHENANDOAH VALLEY

CITY           SKY/WX    TMP DP  RH WIND       PRES   REMARKS
WINCHESTER*    MOCLDY    23   7  50 NW3       30.32R
FRONT ROYAL*   FAIR      23  12  63 N5        30.30R
LURAY*         CLOUDY    28  21  74 NE6       30.28R
NEW MARKET*    PTSUNNY   22  14  71 NE3       30.27R
STAUNTON*      MOCLDY    23  17  78 NW5       30.28R
WAYNESBORO*    FAIR      23  16  72 CALM      30.24R

$$

WVZ021-048>050-054>055-271300-
EASTERN WEST VIRGINIA PANHANDLE

CITY           SKY/WX    TMP DP  RH WIND       PRES   REMARKS
MARTINSBURG    CLEAR     21   7  54 N9        30.34R WCI  11
PETERSBURG*    NOT AVBL

$$

VAZ036>039-050-271300-
CENTRAL FOOTHILLS

CITY           SKY/WX    TMP DP  RH WIND       PRES   REMARKS
CHARLOTTESVILL CLOUDY    27  21  78 N3        30.28R
CULPEPER*      CLOUDY    30  19  64 N8        30.31R WCI  23
ORANGE*        CLOUDY    30  23  74 N6        30.31R
GORDONSVILLE*  PTSUNNY   27  20  74 N6        30.29R
WARRENTON*     CLOUDY    31  25  78 N12       30.30R WCI  22

$$

VAZ055>057-271300-
NORTH AND CENTRAL PIEDMONT

CITY           SKY/WX    TMP DP  RH WIND       PRES   REMARKS
FREDERICKSBRG* CLOUDY    32  29  90 CALM      30.30R
STAFFORD*      CLOUDY    31  22  70 N9        30.34R WCI  23

$$

NCZ024-NYZ072-PAZ021-071-VAZ022-071-271300-
OTHER REGIONAL OBSERVATIONS

CITY           SKY/WX    TMP DP  RH WIND       PRES   REMARKS
NEW YORK CITY  CLOUDY    18   4  54 VRB5      30.34R
PHILADELPHIA   LGT SNOW  23  16  74 N10       30.34R WCI  12
PITTSBURGH     PTCLDY     3  -1  83 NW9       30.37R WCI -12
ROANOKE        PTCLDY    25  14  63 NW8       30.30R WCI  16
RICHMOND       PTCLDY    30  26  85 S5        30.28R FOG
RALEIGH        PTCLDY    23  19  85 CALM      30.29R FOG

$$

ANZ530>537-271300-
MARINE OBSERVATIONS

STATION/POSITION TIME  TEMP    WIND        PRES
                       AIR SEA DIR/SP/G
                 (UTC) (F)     (DEG/KT/KT) (MB)
THOMAS PT LIGHT  1200   30 31  350/  3/  4 1027.3R
BALT KEY BRIDGE  1100   29      50/  2/  2 1025.4R
COVE POINT       1100   28        CALM     1024.8R
LEWISETTA        1100   27 32              1024.6R
SOLOMONS ISLAND  1100      32                N/A

$$




USA.gov is the U.S. government's official web portal to all federal, state and local government web resources and services.